HULIANWANG DIGUI-115

Last updated on Mon Dec 15 2025 00:02:13 GMT+0000 (Coordinated Universal Time)

1 66954U 25287B 25348.23571994 .00000039 00000+0 26663-4 0 9994 2 66954 86.4973 345.6134 0008667 199.3224 160.7608 13.68791762 730
UTC large
Height (km)
Speed (km/s)
/
Latitude / Longitude
Inclination (degrees)
Orbital Period (minutes)
Azimuth
Elevation
Range (km)
Doppler Factor

Next 0 passes for location: London (51.5072 / 0.1276)

Sorry there are no passes over London.